Regional Weather Roundup
Issued by NWS

Home | Current Version | Previous Version | Graphics & Text | Print | Product List | Glossary On
Versions: 1 2 3 4 5 6 7 8 9 10 11 12 13 14 15 16 17 18 19 20 21 22 23 24 25 26 27 28 29 30 31 32 33 34 35 36 37 38 39 40 41 42 43 44 45 46 47 48 49 50
000
ASUS43 KDTX 222301
RWRMI
MICHIGAN HOURLY REGIONAL WEATHER ROUNDUP
NATIONAL WEATHER SERVICE DETROIT/PONTIAC MI
600 PM EST SUN JAN 22 2017

NOTE: "FAIR" INDICATES FEW OR NO CLOUDS BELOW 12,000 FEET WITH NO
SIGNIFICANT WEATHER AND/OR OBSTRUCTION TO VISIBILITY.

MIZ047>049-052>055-059>063-066>070-074>076-081>083-230000-
SOUTHEAST LOWER MICHIGAN

CITY           SKY/WX    TMP DP  RH WIND       PRES   REMARKS
ADRIAN         CLOUDY    49  48  97 E9        29.60S
ALMA           FOG       41  41  99 W5        29.66R VSB 1/2
ANN ARBOR      FOG       47  47 100 NE8       29.60S VSB 1/2
BAD AXE        CLOUDY    42  42 100 CALM      29.65S FOG
CARO           FOG       40  40 100 N3        29.64S VSB 1/4
DETROIT CITY   FOG       46  46 100 N3        29.62S VSB 1/4
DETROIT        FOG       48  47  96 N6        29.62R VSB 1/16
FLINT          FOG       45  45 100 N5        29.62F VSB 1/4
GROSSE ILE     FOG       45  44  99 NE7       29.60R VSB 1/4
HILLSDALE      CLOUDY    46  45  93 NE7       29.59R FOG
HOWELL         CLOUDY    47  46  95 NE5       29.61S FOG

CITY           SKY/WX    TMP DP  RH WIND       PRES   REMARKS
JACKSON        FOG       48  46  93 N7        29.60R VSB 1/4
LAMBERTVILLE   FOG       47  45  93 E6        29.60R VSB 3/4
LANSING        CLOUDY    42  39  89 NE5       29.64R FOG
LAPEER         FOG       46  46  99 CALM      29.63S VSB 1/2
MASON          FOG       43  43 100 N6        29.62S VSB 1/4
MONROE         CLOUDY    47  47 100 NE8       29.59S FOG
MT. CLEMENS    FOG       46  46 100 N3        29.60S VSB 1/8
PONTIAC        FOG       46  44  93 E7        29.60S VSB 1/4
PORT HOPE        N/A     37  37 100 CALM      29.64S
PORT HURON     FOG       45  45 100 NE3       29.63S VSB 1/4
TRI CITIES     FOG       40  40 100 N5        29.66S VSB 1/8
MIDLAND        FOG       40  39  97 E5        29.66R VSB 3/4
TROY           FOG       47  46  95 N3        29.63S VSB 1/2
SAGINAW HB     FOG       39  37  93 N3        29.65R VSB 3/4
$$
MIZ043>046-050>051-056>058-064>065-071>073-077>080-230000-
SOUTHWEST LOWER MICHIGAN

CITY           SKY/WX    TMP DP  RH WIND       PRES   REMARKS
BATTLE CREEK   FOG       41  41 100 N7        29.62S VSB 3/4
BENTON HARBOR  CLOUDY    42  40  92 VRB5      29.63R FOG
BIG RAPIDS     FOG       40  39  97 CALM      29.65R VSB<1/4
COLDWATER      FOG       46  46 100 N6        29.59S VSB 3/4
FREMONT        CLOUDY    41  41  99 CALM      29.64R
HOLLAND        CLOUDY    44  41  89 NE3       29.65R
GRAND RAPIDS   CLOUDY    42  39  89 NE7       29.64S FOG
IONIA          FOG       40  40  99 N5        29.64R VSB 1/2
KALAMAZOO      FOG       42  40  92 N7        29.62S VSB 1/2
LUDINGTON      CLOUDY    37  37 100 N3        29.65S FOG
MARSHALL       FOG       42  42  98 N5        29.61R VSB 3/4
MOUNT PLEASANT FOG       37  37  99 CALM      29.64S VSB<1/4
MUSKEGON       CLOUDY    42  39  89 NW3       29.66R
SOUTH HAVEN    CLOUDY    42  42 100 NE7       29.64R FOG
$$
MIZ016>042-230000-
NORTHERN LOWER MICHIGAN

CITY           SKY/WX    TMP DP  RH WIND       PRES   REMARKS
ALPENA         FOG       39  38  96 E3        29.68R VSB 1/2
BEAVER ISLAND  FOG       36  36 100 E6        29.68S VSB 1/2 WCI  31
BELLAIRE       CLOUDY    37  36  97 CALM      29.67S
CADILLAC       CLOUDY    40  38  91 CALM      29.64R FOG
CHARLEVOIX     CLOUDY    39  39 100 CALM      29.69S FOG
FRANKFORT      FOG       39  39 100 CALM      29.67R VSB 1/4
GAYLORD        CLOUDY    41  36  82 CALM      29.64R
GRAYLING       CLOUDY    40  39  95 N3        29.66R
HARBOR SPRINGS CLOUDY    39  38  97 CALM      29.67S
HOUGHTON LAKE  MOCLDY    39  36  89 CALM      29.64S
MANISTEE       CLOUDY    40  39  97 NW6       29.66S FOG
OSCODA         FOG       39  38  97 CALM      29.66S VSB 1/2
PELLSTON       FOG       36  35  96 N5        29.68R VSB 1/4 WCI  32
ROGERS CITY    FOG       37  36  96 CALM      29.68S VSB 1/2
TRAVERSE CITY  CLOUDY    41  38  89 CALM      29.65S
$$
MIZ007>008-015-230000-
EASTERN UPPER MICHIGAN

CITY           SKY/WX    TMP DP  RH WIND       PRES   REMARKS
KINROSS        FOG       35  35 100 E3        29.69R VSB 1/4
MACKINAC ISLAN SNOW      35  35 100 E5        29.68S VSB 1/4 WCI  31
NEWBERRY       FOG       36  35  97 E3        29.66S VSB 3/4
S. S. MARIE    FOG       37  36  96 CALM      29.69R VSB 1/2
MUNISING         N/A     35  35 100 CALM      29.66R
$$
MIZ004>006-011>014-085-230000-
CENTRAL UPPER MICHIGAN

CITY           SKY/WX    TMP DP  RH WIND       PRES   REMARKS
MANISTIQUE     FOG       35  35  98 SE5       29.66R VSB 1/4 WCI  31
ESCANABA       FOG       36  35  96 CALM      29.67R VSB 1/4
SAWYER-GWINN   FOG       36  36 100 CALM      29.64R VSB 1/2
$$
MIZ001>003-009>011-084-230000-
WESTERN UPPER MICHIGAN

CITY           SKY/WX    TMP DP  RH WIND       PRES   REMARKS
IRON MOUNTAIN  CLOUDY    37  34  89 CALM      29.64R
HOUGHTON       FOG       35  33  92 W6        29.63R VSB 1/4 WCI  30
COPPER HARBOR    N/A     35  35 100 CALM      29.64R
IRONWOOD       FOG       34  33  96 NW5       29.69R VSB 1/4 WCI  30
$$

ABBREVIATIONS USED IN REMARKS
   TC - TEMPERATURE IN CELSIUS
  WCI - WIND CHILL INDEX
   HX - HEAT INDEX
  VSB - VISIBILITY





USA.gov is the U.S. government's official web portal to all federal, state and local government web resources and services.